AKST,Max TemperatureF,Mean TemperatureF,Min TemperatureF,Max Dew PointF,MeanDew PointF,Min DewpointF,Max Humidity, Mean Humidity, Min Humidity, Max Sea Level PressureIn, Mean Sea Level PressureIn, Min Sea Level PressureIn, Max VisibilityMiles, Mean VisibilityMiles, Min VisibilityMiles, Max Wind SpeedMPH, Mean Wind SpeedMPH, Max Gust SpeedMPH,PrecipitationIn, CloudCover, Events, WindDirDegrees
2012-11-1,10,12,6,10,5,2,87,77,65,30.54,30.46,30.33,10,9,2,10,5,,0.00,0,,342
2012-11-2,14,12,6,10,4,-1,92,69,47,30.37,30.20,30.07,10,10,8,20,6,25,0.00,1,Snow,2
2012-11-3,-2,8,-2,-2,-3,-7,79,57,47,30.25,30.25,30.23,10,10,5,18,8,29,0.00,0,,353
2012-11-4,5,2,-5,2,-5,-9,88,77,64,30.25,30.22,30.17,10,10,6,7,3,,0.00,0,Snow,333
2012-11-5,0,5,0,4,-1,-4,88,79,70,30.49,30.38,30.26,10,9,3,10,4,,0.00,0,,343
2012-11-6,6,1,-4,2,-3,-7,87,81,76,30.57,30.51,30.41,10,8,2,12,6,,0.00,5,Snow,98
2012-11-7,0,6,1,7,3,-2,92,86,83,30.67,30.60,30.45,10,8,2,9,6,,0.00,6,Snow,97
2012-11-8,8,4,-2,2,-2,-7,92,83,70,30.66,30.48,30.32,10,9,2,12,6,17,0.00,1,Snow,91
2012-11-9,3,4,1,1,0,-4,84,77,70,30.30,30.13,30.01,10,10,10,10,6,,0.00,0,,36
2012-11-10,0,3,-2,2,-3,-8,88,83,76,30.01,29.95,29.86,10,10,10,9,5,,0.00,0,,340
2012-11-11,3,2,-2,3,-2,-5,88,85,79,30.30,30.13,29.91,10,10,8,8,2,,0.00,0,,355
2012-11-12,-7,-3,-9,0,-8,-14,87,84,79,30.44,30.39,30.31,10,10,10,9,4,,0.00,0,,1
2012-11-13,5,-3,-9,1,-6,-15,88,84,78,30.48,30.32,30.07,10,10,5,13,5,,0.00,0,,360
2012-11-14,12,11,5,8,0,-4,88,58,43,30.25,30.10,30.01,10,10,10,29,12,37,0.00,0,,16
2012-11-15,5,10,3,4,1,-2,80,65,51,30.46,30.38,30.26,10,10,9,16,10,21,0.00,0,,342
2012-11-16,0,4,-2,1,-4,-7,87,77,64,30.48,30.45,30.42,10,10,6,10,3,,0.00,0,,60
2012-11-17,-5,-7,-14,-7,-13,-19,83,79,75,30.43,30.28,30.15,10,10,6,7,2,,0.00,0,,12
2012-11-18,0,-2,-9,-2,-9,-15,83,75,61,30.38,30.25,30.15,10,10,8,6,1,,0.00,0,,248
2012-11-19,-6,-6,-13,-8,-12,-17,86,76,69,30.51,30.47,30.38,10,10,10,8,2,,0.00,0,,335
2012-11-20,-15,-11,-16,-12,-18,-22,82,78,74,30.45,30.42,30.39,10,10,8,12,2,,0.00,0,,21
2012-11-21,-18,-16,-20,-17,-22,-27,79,77,73,30.52,30.44,30.39,10,10,6,7,1,,0.00,0,,12
2012-11-22,-16,-16,-18,-20,-23,-25,82,77,74,30.59,30.55,30.47,10,10,10,10,2,,0.00,0,,348
2012-11-23,-9,-12,-18,-11,-18,-23,86,79,74,30.46,30.43,30.41,10,10,9,13,3,,0.00,0,,16
2012-11-24,-9,-8,-13,-7,-13,-18,87,81,75,30.48,30.45,30.44,10,10,8,9,4,,0.00,0,,1
2012-11-25,-8,-6,-9,-7,-12,-14,87,82,79,30.59,30.56,30.50,10,10,10,13,3,,0.00,0,,354
2012-11-26,-4,-6,-9,-7,-10,-14,87,83,79,30.57,30.43,30.28,10,10,5,8,4,,0.00,0,,23
2012-11-27,10,3,-4,3,-2,-8,84,79,67,30.53,30.39,30.28,10,10,10,9,5,,0.00,0,,81
2012-11-28,-4,4,-6,3,-3,-10,88,78,64,30.60,30.57,30.54,10,10,10,12,5,,0.00,0,,17
2012-11-29,-2,-2,-8,-1,-8,-12,87,81,75,30.54,30.49,30.45,10,10,10,7,3,,0.00,0,,299
2012-11-30,0,-4,-9,-3,-9,-13,87,83,79,30.51,30.40,30.25,10,10,9,7,2,,0.00,1,Snow,1